HK6LRQ-20 Weather Reports


time (UTC)temp
C
wind
direction
speed
KPH
gust
KPH
rain 1hr
cm
rain 24hr
cm
rain mn
cm
humidity
%
barometer
mb
20260507170441 23 220 8.0 0.0 0.00 0.00 0.00 73 1013.0
20260507165440 23 220 8.0 0.0 0.00 0.00 0.00 73 1013.0
20260507164439 23 220 8.0 0.0 0.00 0.00 0.00 73 1014.0
20260507163438 21 0 1.6 0.0 0.00 0.00 0.00 83 1014.0
20260507162437 21 0 1.6 0.0 0.00 0.00 0.00 83 1015.0
20260507161436 21 0 1.6 0.0 0.00 0.00 0.00 83 1015.0
20260507160436 22 0 3.2 0.0 0.00 0.00 0.00 83 1015.0
20260507155435 22 0 3.2 0.0 0.00 0.00 0.00 83 1014.0
20260507154434 21 0 1.6 0.0 0.00 0.00 0.00 83 1015.0
20260507153432 21 0 1.6 0.0 0.00 0.00 0.00 83 1015.0
20260507152432 21 0 1.6 0.0 0.00 0.00 0.00 83 1016.0
20260507151431 21 0 1.6 0.0 0.00 0.00 0.00 83 1016.0
20260507150430 21 0 1.6 0.0 0.00 0.00 0.00 83 1016.0
20260507145429 21 0 3.2 0.0 0.00 0.00 0.00 83 1015.0
20260507144428 21 0 3.2 0.0 0.00 0.00 0.00 83 1016.0
20260507143427 18 0 1.6 0.0 0.00 0.00 0.00 81 1016.0
20260507142426 18 0 1.6 0.0 0.00 0.00 0.00 81 1016.0
20260507141425 18 0 1.6 0.0 0.00 0.00 0.00 81 1016.0
20260507140424 18 0 1.6 0.0 0.00 0.00 0.00 83 1016.0
20260507135423 18 0 1.6 0.0 0.00 0.00 0.00 83 1016.0
20260507134422 18 0 1.6 0.0 0.00 0.00 0.00 83 1016.0
20260507133421 17 0 1.6 0.0 0.00 0.00 0.00 77 1016.0
20260507132420 17 0 1.6 0.0 0.00 0.00 0.00 77 1016.0
20260507131419 17 0 1.6 0.0 0.00 0.00 0.00 76 1016.0
20260507130418 17 298 0.0 3.2 0.00 0.00 0.00 75 1016.0
20260507125417 18 298 0.0 3.2 0.00 0.00 0.00 75 1016.0
20260507124416 14 91 6.4 6.4 0.00 0.00 0.00 80 1016.0
20260507123415 14 91 6.4 6.4 0.00 0.00 0.00 80 1016.0
20260507122414 14 91 6.4 6.4 0.00 0.00 0.00 80 1016.0
20260507121413 14 91 6.4 6.4 0.00 0.00 0.00 80 1016.0
20260507120412 14 91 6.4 6.4 0.00 0.00 0.00 80 1016.0
20260507115411 14 91 6.4 6.4 0.00 0.00 0.00 80 1016.0
20260507114410 14 91 6.4 6.4 0.00 0.00 0.00 80 1016.0
20260507113409 14 91 6.4 6.4 0.00 0.00 0.00 80 1016.0
20260507112408 14 91 6.4 6.4 0.00 0.00 0.00 80 1016.0
20260507111407 14 91 6.4 6.4 0.00 0.00 0.00 80 1016.0
20260507110406 14 91 6.4 6.4 0.00 0.00 0.00 80 1016.0
20260507105405 14 91 6.4 6.4 0.00 0.00 0.00 80 1016.0
20260507104404 14 91 6.4 6.4 0.00 0.00 0.00 80 1016.0
20260507103403 14 91 6.4 6.4 0.00 0.00 0.00 80 1016.0
20260507102402 14 91 6.4 6.4 0.00 0.00 0.00 80 1016.0
20260507101401 14 91 6.4 6.4 0.00 0.00 0.00 80 1016.0
20260507100400 14 91 6.4 6.4 0.00 0.00 0.00 80 1016.0
20260507095359 14 91 6.4 6.4 0.00 0.00 0.00 80 1016.0
20260507094358 14 91 6.4 6.4 0.00 0.00 0.00 80 1016.0
20260507093357 14 91 6.4 6.4 0.00 0.00 0.00 80 1016.0
20260507092356 14 91 6.4 6.4 0.00 0.00 0.00 80 1016.0
20260507091355 14 91 6.4 6.4 0.00 0.00 0.00 80 1016.0
20260507090354 15 91 6.4 6.4 0.00 0.00 0.00 80 1016.0
20260507085353 15 91 6.4 6.4 0.00 0.00 0.00 80 1016.0
20260507084352 15 91 6.4 6.4 0.00 0.00 0.00 80 1016.0
20260507083352 15 91 6.4 6.4 0.00 0.00 0.00 80 1016.0
20260507082351 15 91 6.4 6.4 0.00 0.00 0.00 80 1016.0
20260507081350 15 91 6.4 6.4 0.00 0.00 0.00 80 1016.0
20260507080349 15 91 6.4 6.4 0.00 0.00 0.00 80 1016.0
20260507075348 15 91 6.4 6.4 0.00 0.00 0.00 80 1016.0
20260507074347 15 91 6.4 6.4 0.00 0.00 0.00 80 1016.0
20260507073346 15 91 6.4 6.4 0.00 0.00 0.00 80 1016.0
20260507072345 15 91 6.4 6.4 0.00 0.00 0.00 80 1016.0
20260507071344 15 91 6.4 6.4 0.00 0.00 0.00 80 1016.0
20260507070343 15 91 6.4 6.4 0.00 0.00 0.00 80 1016.0
20260507065342 15 91 6.4 6.4 0.00 0.00 0.00 80 1016.0
20260507064341 15 91 6.4 6.4 0.00 0.00 0.00 80 1016.0
20260507063340 15 91 6.4 6.4 0.00 0.00 0.00 80 1016.0
20260507062339 15 91 6.4 6.4 0.00 0.00 0.00 80 1016.0
20260507061338 15 91 6.4 6.4 0.00 0.00 0.00 80 1016.0
20260507060337 15 91 6.4 6.4 0.00 0.00 0.00 80 1016.0
20260507055336 15 91 6.4 6.4 0.00 0.00 0.00 80 1016.0
20260507054335 15 91 6.4 6.4 0.00 0.00 0.00 80 1017.0
20260507053334 15 91 6.4 6.4 0.00 0.00 0.00 80 1017.0
20260507052333 15 91 6.4 6.4 0.00 0.00 0.00 80 1017.0
20260507051332 15 91 6.4 6.4 0.00 0.00 0.00 80 1017.0
20260507050331 15 91 6.4 6.4 0.00 0.00 0.00 80 1017.0
20260507045330 15 91 6.4 6.4 0.00 0.00 0.00 80 1017.0
20260507044329 15 91 6.4 6.4 0.00 0.00 0.00 80 1017.0
20260507043328 15 91 6.4 6.4 0.00 0.00 0.00 80 1017.0
20260507042327 15 91 6.4 6.4 0.00 0.00 0.00 80 1017.0
20260507041326 15 91 6.4 6.4 0.00 0.00 0.00 80 1017.0
20260507040325 15 91 6.4 6.4 0.00 0.00 0.00 80 1017.0
20260507035324 15 91 6.4 6.4 0.00 0.00 0.00 80 1017.0
20260507034323 15 91 6.4 6.4 0.00 0.00 0.00 80 1017.0
20260507033322 15 91 6.4 6.4 0.00 0.00 0.00 80 1016.0
20260507032320 15 91 6.4 6.4 0.00 0.00 0.00 80 1016.0
20260507031319 15 91 6.4 6.4 0.00 0.00 0.00 80 1016.0
20260507030318 16 91 6.4 6.4 0.00 0.00 0.00 80 1016.0
20260507025317 16 91 6.4 6.4 0.00 0.00 0.00 80 1017.0
20260507024316 16 91 6.4 6.4 0.00 0.00 0.00 80 1016.0
20260507023315 16 91 6.4 6.4 0.00 0.00 0.00 80 1016.0
20260507022314 16 91 6.4 6.4 0.00 0.00 0.00 80 1015.0
20260507021313 16 91 6.4 6.4 0.00 0.00 0.00 80 1015.0
20260507020312 16 91 6.4 6.4 0.00 0.00 0.00 80 1016.0
20260507015311 16 91 6.4 6.4 0.00 0.00 0.00 80 1016.0
20260507014310 16 91 6.4 6.4 0.00 0.00 0.00 80 1015.0
20260507013309 16 91 6.4 6.4 0.00 0.00 0.00 80 1015.0
20260507012308 16 91 6.4 6.4 0.00 0.00 0.00 80 1014.0
20260507011307 16 91 6.4 6.4 0.00 0.00 0.00 80 1014.0
20260507010306 17 91 6.4 6.4 0.00 0.00 0.00 80 1014.0
20260507005306 17 91 6.4 6.4 0.00 0.00 0.00 80 1015.0
20260507004304 17 91 6.4 6.4 0.00 0.00 0.00 80 1014.0
20260507003303 17 91 6.4 6.4 0.00 0.00 0.00 80 1014.0
20260507002305 17 91 6.4 6.4 0.00 0.00 0.00 80 1013.0
20260507001301 17 91 6.4 6.4 0.00 0.00 0.00 80 1013.0
20260507000300 17 91 6.4 6.4 0.00 0.00 0.00 80 1013.0
20260506235259 18 91 6.4 6.4 0.00 0.00 0.00 80 1014.0
20260506234258 18 91 6.4 6.4 0.00 0.00 0.00 80 1013.0
20260506233257 21 210 12.9 0.0 0.00 0.00 0.00 80 1013.0
20260506232256 21 210 12.9 0.0 0.00 0.00 0.00 80 1011.0
20260506231256 21 210 12.9 0.0 0.00 0.00 0.00 80 1011.0
20260506230255 21 210 12.9 0.0 0.00 0.00 0.00 80 1011.0
20260506225253 21 210 12.9 0.0 0.00 0.00 0.00 80 1012.0
20260506224252 21 210 12.9 0.0 0.00 0.00 0.00 80 1011.0
20260506223251 21 210 12.9 0.0 0.00 0.00 0.00 80 1011.0
20260506222251 21 210 12.9 0.0 0.00 0.00 0.00 80 1010.0
20260506221250 21 210 12.9 0.0 0.00 0.00 0.00 80 1010.0
20260506220249 22 210 12.9 0.0 0.00 0.00 0.00 80 1010.0
20260506215247 22 210 12.9 0.0 0.00 0.00 0.00 80 1010.0
20260506214247 22 210 12.9 0.0 0.00 0.00 0.00 80 1010.0
20260506213246 22 210 12.9 0.0 0.00 0.00 0.00 80 1010.0
20260506212245 22 210 12.9 0.0 0.00 0.00 0.00 80 1010.0
20260506211244 22 210 12.9 0.0 0.00 0.00 0.00 80 1010.0
20260506210243 22 210 12.9 0.0 0.00 0.00 0.00 80 1010.0
20260506205242 22 210 12.9 0.0 0.00 0.00 0.00 80 1010.0
20260506204241 22 210 12.9 0.0 0.00 0.00 0.00 80 1010.0
20260506203240 22 210 12.9 0.0 0.00 0.00 0.00 80 1010.0
20260506202239 22 210 12.9 0.0 0.00 0.00 0.00 80 1010.0
20260506201238 22 210 12.9 0.0 0.00 0.00 0.00 80 1010.0
20260506200237 22 210 12.9 0.0 0.00 0.00 0.00 81 1010.0
20260506195236 22 210 12.9 0.0 0.00 0.00 0.00 81 1010.0
20260506194235 22 210 12.9 0.0 0.00 0.00 0.00 82 1010.0
20260506193234 22 210 12.9 0.0 0.00 0.00 0.00 83 1010.0
20260506192233 22 210 12.9 0.0 0.00 0.00 0.00 83 1011.0
20260506191232 22 210 12.9 0.0 0.00 0.00 0.00 83 1011.0
20260506190231 22 210 12.9 0.0 0.00 0.00 0.00 83 1011.0
20260506185231 22 210 12.9 0.0 0.00 0.00 0.00 83 1011.0
20260506184229 22 210 12.9 0.0 0.00 0.00 0.00 83 1011.0
20260506183228 22 210 12.9 0.0 0.00 0.00 0.00 83 1011.0
20260506182227 22 210 12.9 0.0 0.00 0.00 0.00 83 1012.0
20260506181226 22 210 12.9 0.0 0.00 0.00 0.00 83 1012.0
20260506180225 22 210 12.9 0.0 0.00 0.00 0.00 83 1012.0
20260506175224 22 210 12.9 0.0 0.00 0.00 0.00 83 1012.0
20260506174223 22 210 12.9 0.0 0.00 0.00 0.00 83 1012.0
20260506173222 22 210 12.9 0.0 0.00 0.00 0.00 83 1012.0
20260506172221 22 210 12.9 0.0 0.00 0.00 0.00 83 1013.0
20260506171220 22 210 12.9 0.0 0.00 0.00 0.00 83 1013.0